CZ-6A DEB, 60865

Orbit data source: Space-Track

CZ-6A DEB, 60865 is space debris in LEO originally from a launch on Tue, 06 Aug 2024 UTC launched from the Taiyaun Space Center, China (TSC). Debris objects in space refer to the collection of defunct objects orbiting the Earth. Examples of debris include non-operational satellites, rocket bodies, and fragments generated from explosions, collisions, or faulty payload assembly.

Loading next visibility...
Identifier
60865, 2024-140JU
Orbit
LEO
Country
Flag of CNCN / PRC
Related business
Manufacturer
SAST
Mission
Spacecraft
Bus & Motor
Unknown
Mass
Unknown
Launch date (UTC)
2024-08-06 (2 years ago)
Launch vehicle
Unknown
Launch site
Taiyaun Space Center, China (TSC)
Object type
Payload
Rocket body
Debris
Shape & HBR
Unknown shape, 0.1 m
Radar Cross Section
Medium (>0.1 m² and <1 m²)

Expand to show TLE details & history
Last TLE update: 14 hours ago

TLE from 14 hours ago
0 CZ-6A DEB
1 60865U 24140JU  26171.24839329  .00000662  00000-0  16432-3 0  9996
2 60865  88.9813 269.0259 0087579 223.4767 135.9512 14.48424406 97508
Epoch: 2026-06-20T05:57Z
TLE epoch observation values (Epoch: 2026-06-20T05:57:41.180Z)
Latitude
-0.00004°
Longitude
-88.86142°
Altitude
778.913 km
Speed
7.441 km/s
True Right ascension
17h 56m 06s
True Declination
0° 00' 00"
Sunlit
Object was in full shadow at epoch
Visualization orbit readout
Latitude
Unknown
Longitude
Unknown
Altitude
Unknown
Speed
Unknown
Apparent Right ascension
Unknown
Apparent Declination
Unknown
Sunlit
N/A
Visualization observer readout
Local Sidereal Time
07:20:21
Azimuth
Unknown
Elevation
Unknown
Doppler factor
Unknown
Orbital elements
Apogee altitude
789.942 km
Perigee altitude
665.477 km
Semi-major axis
7,105.847 km
Eccentricity
0.00876
Inclination
88.9813°
RAAN
269.0259°
Arg. of periapsis
223.4767°
True anomaly
136.64349°
Mean anomaly
135.9512°
Eccentric anomaly
136.29789°
Mean motion
3.62343 °/min
Orbital period
99.35 mins
BSTAR
0.00016432
Loading maneuver chart data...
Computing Atmospheric mass density...
Loading historical data...
Loading historical data...
Loading historical data...
Loading historical data...
Loading historical data...
Loading historical data...
Loading historical data...

Documentation

Showing up to 5 results
|